GW6391 Weather Reports


Display with metric or nautical units.
time (UTC)temp
F
wind
direction
speed
MPH
gust
MPH
rain 1hr
in
rain 24hr
in
rain mn
in
humidity
%
barometer
mb
20260507164014 65 306 12.0 18.0 0.00 0.00 0.00 37 1012.3
20260507163514 66 269 12.0 20.0 0.00 0.00 0.00 36 1012.3
20260507163048 66 299 12.0 21.0 0.00 0.00 0.00 36 1012.1
20260507162518 65 286 9.0 19.0 0.00 0.00 0.00 36 1012.2
20260507162016 66 302 14.0 19.0 0.00 0.00 0.00 36 1012.1
20260507161601 65 269 10.0 17.0 0.00 0.00 0.00 38 1012.3
20260507161016 64 275 9.0 15.0 0.00 0.00 0.00 38 1012.1
20260507160517 63 319 6.0 15.0 0.00 0.00 0.00 38 1012.2
20260507160046 62 235 2.0 9.0 0.00 0.00 0.00 38 1012.4
20260507155513 61 182 2.0 10.0 0.00 0.00 0.00 38 1012.5
20260507155012 60 227 3.0 6.0 0.00 0.00 0.00 37 1012.5
20260507154552 59 229 3.0 6.0 0.00 0.00 0.00 37 1012.5
20260507154015 58 150 1.0 5.0 0.00 0.00 0.00 36 1012.7
20260507153518 57 177 2.0 7.0 0.00 0.00 0.00 37 1012.6
20260507153059 56 225 2.0 8.0 0.00 0.00 0.00 38 1012.5
20260507152518 55 238 2.0 7.0 0.00 0.00 0.00 37 1012.7
20260507152019 55 221 3.0 7.0 0.00 0.00 0.00 36 1012.7
20260507151551 54 206 2.0 6.0 0.00 0.00 0.00 35 1012.7
20260507151014 53 220 3.0 6.0 0.00 0.00 0.00 35 1012.7
20260507150514 53 240 4.0 6.0 0.00 0.00 0.00 34 1012.7
20260507150050 53 196 3.0 5.0 0.00 0.00 0.00 34 1012.4
20260507145514 52 256 2.0 4.0 0.00 0.00 0.00 34 1012.3
20260507145019 51 238 1.0 6.0 0.00 0.00 0.00 34 1012.3
20260507144533 51 190 4.0 9.0 0.00 0.00 0.00 34 1012.5
20260507144014 51 223 5.0 9.0 0.00 0.00 0.00 34 1012.3
20260507143519 51 232 5.0 8.0 0.00 0.00 0.00 34 1012.3
20260507143030 50 185 3.0 7.0 0.00 0.00 0.00 35 1012.3
20260507142515 49 237 4.0 6.0 0.00 0.00 0.00 37 1012.3
20260507142015 48 194 3.0 7.0 0.00 0.00 0.00 40 1012.4
20260507141612 47 234 4.0 7.0 0.00 0.00 0.00 41 1012.5
20260507141012 47 252 3.0 5.0 0.00 0.00 0.00 40 1012.6
20260507140515 47 244 3.0 6.0 0.00 0.00 0.00 39 1012.5
20260507140053 46 244 4.0 6.0 0.00 0.00 0.00 39 1012.7
20260507135514 46 227 4.0 6.0 0.00 0.00 0.00 40 1012.3
20260507135021 46 223 3.0 6.0 0.00 0.00 0.00 40 1012.2
20260507134554 46 220 4.0 6.0 0.00 0.00 0.00 41 1012.2
20260507134014 45 205 2.0 4.0 0.00 0.00 0.00 40 1012.3
20260507133514 45 235 2.0 3.0 0.00 0.00 0.00 41 1012.4
20260507133039 45 286 2.0 4.0 0.00 0.00 0.00 42 1012.2
20260507132519 44 283 2.0 4.0 0.00 0.00 0.00 43 1012.4
20260507132018 44 328 2.0 5.0 0.00 0.00 0.00 43 1012.4
20260507131533 44 328 2.0 5.0 0.00 0.00 0.00 44 1012.4
20260507131016 44 340 3.0 6.0 0.00 0.00 0.00 44 1012.4
20260507130514 44 338 3.0 8.0 0.00 0.00 0.00 44 1012.2
20260507130052 44 321 5.0 8.0 0.00 0.00 0.00 45 1012.3
20260507125515 44 322 5.0 8.0 0.00 0.00 0.00 44 1012.3
20260507125007 44 335 3.0 5.0 0.00 0.00 0.00 44 1012.1
20260507124549 44 340 4.0 6.0 0.00 0.00 0.00 43 1012.0
20260507124017 44 343 3.0 6.0 0.00 0.00 0.00 43 1011.9
20260507123515 44 352 4.0 6.0 0.00 0.00 0.00 44 1011.9
20260507123050 44 348 4.0 6.0 0.00 0.00 0.00 44 1011.9
20260507122517 44 338 3.0 5.0 0.00 0.00 0.00 44 1011.9
20260507122018 44 326 4.0 6.0 0.00 0.00 0.00 44 1011.7
20260507121552 44 339 4.0 6.0 0.00 0.00 0.00 44 1011.8
20260507121016 44 331 3.0 6.0 0.00 0.00 0.00 45 1011.8
20260507120515 44 321 2.0 5.0 0.00 0.00 0.00 45 1011.5
20260507120104 44 321 3.0 6.0 0.00 0.00 0.00 45 1011.5
20260507115516 43 311 4.0 8.0 0.00 0.00 0.00 45 1011.5
20260507115016 43 333 5.0 8.0 0.00 0.00 0.00 45 1011.5
20260507114607 43 340 4.0 6.0 0.00 0.00 0.00 46 1011.3
20260507114014 42 312 4.0 9.0 0.00 0.00 0.00 46 1011.2
20260507113520 42 286 6.0 9.0 0.00 0.00 0.00 47 1011.2
20260507113053 42 316 6.0 8.0 0.00 0.00 0.00 48 1011.3
20260507112516 42 303 4.0 7.0 0.00 0.00 0.00 48 1011.2
20260507112017 42 297 4.0 7.0 0.00 0.00 0.00 48 1011.2
20260507111555 42 312 3.0 6.0 0.00 0.00 0.00 48 1011.2
20260507111015 42 298 4.0 6.0 0.00 0.00 0.00 47 1011.1
20260507110517 42 299 5.0 8.0 0.00 0.00 0.00 47 1011.1
20260507110047 42 315 4.0 8.0 0.00 0.00 0.00 47 1011.0
20260507105515 41 327 4.0 8.0 0.00 0.00 0.00 48 1010.9
20260507105015 42 318 4.0 10.0 0.00 0.00 0.00 47 1010.9
20260507104548 42 333 4.0 9.0 0.00 0.00 0.00 46 1010.8
20260507104018 42 346 5.0 11.0 0.00 0.00 0.00 45 1010.7
20260507103515 43 333 6.0 13.0 0.00 0.00 0.00 44 1010.8
20260507103041 43 339 7.0 13.0 0.00 0.00 0.00 43 1010.8
20260507102519 43 336 7.0 11.0 0.00 0.00 0.00 42 1010.6
20260507102017 43 239 8.0 11.0 0.00 0.00 0.00 42 1010.4
20260507101602 43 240 7.0 11.0 0.00 0.00 0.00 43 1010.2
20260507101018 43 236 7.0 10.0 0.00 0.00 0.00 43 1010.2
20260507100515 43 231 7.0 10.0 0.00 0.00 0.00 44 1010.0
20260507100050 42 232 7.0 10.0 0.00 0.00 0.00 45 1010.1
20260507095517 41 223 7.0 8.0 0.00 0.00 0.00 46 1010.3
20260507095007 41 222 5.0 7.0 0.00 0.00 0.00 47 1010.2
20260507094555 40 223 4.0 6.0 0.00 0.00 0.00 48 1010.2
20260507094019 39 228 3.0 8.0 0.00 0.00 0.00 49 1010.2
20260507093518 39 230 5.0 7.0 0.00 0.00 0.00 48 1010.1
20260507093053 39 238 3.0 5.0 0.00 0.00 0.00 49 1010.1
20260507092516 39 255 3.0 6.0 0.00 0.00 0.00 49 1010.1
20260507092013 38 303 4.0 5.0 0.00 0.00 0.00 50 1010.2
20260507091528 38 283 2.0 4.0 0.00 0.00 0.00 51 1010.0
20260507091012 38 300 3.0 4.0 0.00 0.00 0.00 51 1009.9
20260507090520 38 286 2.0 3.0 0.00 0.00 0.00 50 1009.9
20260507090047 39 286 2.0 4.0 0.00 0.00 0.00 51 1010.0
20260507085520 39 259 3.0 4.0 0.00 0.00 0.00 51 1009.9
20260507085010 39 293 3.0 5.0 0.00 0.00 0.00 51 1010.1
20260507084550 40 313 3.0 5.0 0.00 0.00 0.00 50 1010.1
20260507084017 40 326 2.0 5.0 0.00 0.00 0.00 50 1010.2
20260507083519 40 298 2.0 4.0 0.00 0.00 0.00 50 1010.2
20260507083042 40 302 3.0 4.0 0.00 0.00 0.00 50 1010.2
20260507082518 41 334 2.0 4.0 0.00 0.00 0.00 50 1010.0
20260507082016 41 334 1.0 3.0 0.00 0.00 0.00 49 1010.0
20260507081550 42 334 2.0 4.0 0.00 0.00 0.00 49 1009.9
20260507081014 42 334 2.0 6.0 0.00 0.00 0.00 48 1010.0
20260507080518 43 332 4.0 8.0 0.00 0.00 0.00 48 1010.1
20260507080056 43 340 4.0 6.0 0.00 0.00 0.00 48 1010.2
20260507075510 44 339 3.0 8.0 0.00 0.00 0.00 48 1010.3
20260507075022 44 329 4.0 10.0 0.00 0.00 0.00 48 1010.2
20260507074531 44 350 7.0 12.0 0.00 0.00 0.00 48 1010.2
20260507074015 44 329 8.0 13.0 0.00 0.00 0.00 49 1010.3
20260507073520 43 325 5.0 9.0 0.00 0.00 0.00 51 1010.0
20260507073028 43 258 2.0 4.0 0.00 0.00 0.00 49 1009.7
20260507072519 43 119 1.0 3.0 0.00 0.00 0.00 49 1009.7
20260507072020 44 119 1.0 3.0 0.00 0.00 0.00 48 1009.4
20260507071549 45 119 2.0 3.0 0.00 0.00 0.00 45 1009.5
20260507071014 46 45 1.0 3.0 0.00 0.00 0.00 46 1009.4
20260507070518 47 45 1.0 4.0 0.00 0.00 0.00 45 1009.4
20260507070048 47 32 2.0 4.0 0.00 0.00 0.00 45 1009.4
20260507065514 48 32 3.0 5.0 0.00 0.00 0.00 44 1009.4
20260507065007 49 36 3.0 6.0 0.00 0.00 0.00 43 1009.2
20260507064604 50 36 4.0 6.0 0.00 0.00 0.00 41 1009.1
20260507064018 51 53 4.0 9.0 0.00 0.00 0.00 42 1009.2
20260507063518 51 37 6.0 9.0 0.00 0.00 0.00 42 1009.2
20260507063059 51 58 6.0 9.0 0.00 0.00 0.00 41 1009.4
20260507062522 51 27 5.0 12.0 0.00 0.00 0.00 41 1009.5
20260507062201 51 36 7.0 12.0 0.00 0.00 0.00 41 1009.5
20260507061546 51 326 1.0 4.0 0.00 0.00 0.00 41 1009.3
20260507061016 52 325 3.0 5.0 0.00 0.00 0.00 40 1009.6
20260507060512 52 5 3.0 6.0 0.00 0.00 0.00 39 1009.7
20260507060041 52 18 4.0 6.0 0.00 0.00 0.00 38 1009.4
20260507055516 53 26 4.0 10.0 0.00 0.00 0.00 37 1009.5
20260507055016 53 21 4.0 11.0 0.00 0.00 0.00 34 1009.6
20260507054550 53 38 7.0 11.0 0.00 0.00 0.00 34 1009.6
20260507054014 53 42 6.0 11.0 0.00 0.00 0.00 32 1009.6
20260507053515 53 43 5.0 12.0 0.00 0.00 0.00 31 1009.5
20260507053050 53 57 9.0 12.0 0.00 0.00 0.00 31 1009.4
20260507052513 54 50 6.0 17.0 0.00 0.00 0.00 30 1009.5
20260507052017 54 71 11.0 17.0 0.00 0.00 0.00 29 1009.3
20260507051549 54 69 9.0 14.0 0.00 0.00 0.00 30 1009.4
20260507051017 55 49 9.0 15.0 0.00 0.00 0.00 30 1009.5
20260507050516 56 27 11.0 15.0 0.00 0.00 0.00 30 1009.6
20260507050044 55 26 11.0 14.0 0.00 0.00 0.00 30 1009.5
20260507045514 56 34 10.0 17.0 0.00 0.00 0.00 30 1009.3
20260507045016 56 44 14.0 17.0 0.00 0.00 0.00 28 1009.2
20260507044547 56 66 8.0 10.0 0.00 0.00 0.00 28 1009.4
20260507044012 56 101 3.0 6.0 0.00 0.00 0.00 29 1009.5
20260507043514 56 162 2.0 9.0 0.00 0.00 0.00 29 1009.4
20260507043051 57 165 3.0 11.0 0.00 0.00 0.00 29 1009.3
20260507042514 56 96 8.0 11.0 0.00 0.00 0.00 28 1008.9
20260507042010 56 53 7.0 10.0 0.00 0.00 0.00 30 1008.8
20260507041553 56 84 7.0 10.0 0.00 0.00 0.00 30 1009.0
20260507041014 56 80 7.0 11.0 0.00 0.00 0.00 30 1008.9
20260507040514 57 60 8.0 16.0 0.00 0.00 0.00 30 1008.7
20260507040103 57 51 10.0 16.0 0.00 0.00 0.00 30 1008.7
20260507035513 58 51 11.0 14.0 0.00 0.00 0.00 29 1008.4
20260507035013 59 33 10.0 13.0 0.00 0.00 0.00 28 1008.5
20260507034602 58 80 7.0 11.0 0.00 0.00 0.00 28 1008.4
20260507034013 58 30 2.0 10.0 0.00 0.00 0.00 30 1008.3
20260507033518 56 89 6.0 9.0 0.00 0.00 0.00 31 1008.1
20260507033104 56 96 4.0 11.0 0.00 0.00 0.00 32 1008.0
20260507032512 56 72 8.0 11.0 0.00 0.00 0.00 33 1008.0
20260507032015 56 69 4.0 6.0 0.00 0.00 0.00 31 1008.1
20260507031551 56 111 0.0 2.0 0.00 0.00 0.00 30 1008.6
20260507031014 56 111 1.0 4.0 0.00 0.00 0.00 30 1008.3
20260507030515 57 111 1.0 4.0 0.00 0.00 0.00 29 1008.1
20260507030105 57 71 2.0 5.0 0.00 0.00 0.00 29 1007.7
20260507025513 57 71 3.0 5.0 0.00 0.00 0.00 29 1007.6
20260507025015 57 74 4.0 5.0 0.00 0.00 0.00 29 1007.5
20260507024557 57 67 3.0 5.0 0.00 0.00 0.00 29 1007.5
20260507024014 57 76 3.0 5.0 0.00 0.00 0.00 29 1007.5
20260507023514 57 63 4.0 5.0 0.00 0.00 0.00 29 1007.7
20260507023054 57 60 3.0 5.0 0.00 0.00 0.00 29 1007.9
20260507022516 58 60 3.0 5.0 0.00 0.00 0.00 28 1007.9
20260507022015 58 65 3.0 5.0 0.00 0.00 0.00 27 1007.9
20260507021601 60 65 3.0 4.0 0.00 0.00 0.00 26 1007.9
20260507021017 61 53 2.0 4.0 0.00 0.00 0.00 25 1007.9
20260507020513 62 53 2.0 5.0 0.00 0.00 0.00 24 1007.8
20260507020051 63 48 3.0 6.0 0.00 0.00 0.00 24 1007.9
20260507015516 63 46 4.0 6.0 0.00 0.00 0.00 23 1008.0
20260507015015 64 42 4.0 9.0 0.00 0.00 0.00 23 1007.9
20260507014552 65 32 6.0 9.0 0.00 0.00 0.00 22 1007.8
20260507014016 65 36 6.0 9.0 0.00 0.00 0.00 22 1007.7
20260507013515 66 60 5.0 9.0 0.00 0.00 0.00 22 1007.7
20260507013109 66 49 6.0 10.0 0.00 0.00 0.00 21 1007.8
20260507012515 67 56 6.0 10.0 0.00 0.00 0.00 21 1007.8
20260507012012 67 68 7.0 11.0 0.00 0.00 0.00 21 1007.7
20260507011527 68 41 7.0 12.0 0.00 0.00 0.00 21 1007.8
20260507011015 68 39 9.0 12.0 0.00 0.00 0.00 20 1007.8
20260507010516 68 66 8.0 12.0 0.00 0.00 0.00 21 1007.8
20260507010055 68 69 5.0 12.0 0.00 0.00 0.00 21 1007.9
20260507005516 68 49 4.0 12.0 0.00 0.00 0.00 21 1008.0
20260507005008 68 67 7.0 12.0 0.00 0.00 0.00 20 1008.0
20260507004547 68 53 6.0 12.0 0.00 0.00 0.00 20 1008.0
20260507004016 68 24 8.0 12.0 0.00 0.00 0.00 20 1008.1
20260507003516 68 18 4.0 10.0 0.00 0.00 0.00 20 1008.0
20260507003100 69 34 7.0 10.0 0.00 0.00 0.00 20 1008.1
20260507002514 69 51 6.0 11.0 0.00 0.00 0.00 20 1008.2
20260507002014 69 352 7.0 11.0 0.00 0.00 0.00 20 1008.2
20260507001613 69 45 4.0 10.0 0.00 0.00 0.00 20 1008.2
20260507001015 68 64 6.0 11.0 0.00 0.00 0.00 20 1008.3
20260507000514 69 59 4.0 12.0 0.00 0.00 0.00 20 1008.2
20260507000029 69 24 6.0 12.0 0.00 0.00 0.00 19 1008.2
20260506235515 70 14 9.0 11.0 0.00 0.00 0.00 19 1008.2
20260506235019 69 342 7.0 11.0 0.00 0.00 0.00 19 1008.3
20260506234600 69 351 5.0 16.0 0.00 0.00 0.00 19 1008.3
20260506234019 69 65 2.0 13.0 0.00 0.00 0.00 19 1008.3
20260506233514 70 342 8.0 13.0 0.00 0.00 0.00 19 1008.4
20260506233029 70 344 7.0 12.0 0.00 0.00 0.00 19 1008.5
20260506232514 70 44 6.0 13.0 0.00 0.00 0.00 19 1008.4
20260506232017 70 303 9.0 13.0 0.00 0.00 0.00 19 1008.5
20260506231525 70 335 2.0 10.0 0.00 0.00 0.00 18 1008.5
20260506231014 70 269 3.0 10.0 0.00 0.00 0.00 18 1008.5
20260506230516 70 328 6.0 12.0 0.00 0.00 0.00 19 1008.6
20260506230053 70 299 8.0 12.0 0.00 0.00 0.00 18 1008.8
20260506225516 69 317 6.0 17.0 0.00 0.00 0.00 18 1009.0
20260506225016 70 289 13.0 17.0 0.00 0.00 0.00 18 1008.9
20260506224606 69 298 7.0 16.0 0.00 0.00 0.00 18 1009.0
20260506224015 69 256 8.0 14.0 0.00 0.00 0.00 19 1009.2
20260506223515 69 247 3.0 14.0 0.00 0.00 0.00 19 1009.3
20260506223103 70 236 3.0 18.0 0.00 0.00 0.00 18 1009.5
20260506222517 69 242 9.0 18.0 0.00 0.00 0.00 19 1009.5
20260506222015 68 249 3.0 15.0 0.00 0.00 0.00 19 1009.5
20260506221552 68 262 8.0 19.0 0.00 0.00 0.00 19 1009.7
20260506221017 69 286 9.0 19.0 0.00 0.00 0.00 19 1009.7
20260506220514 68 278 7.0 16.0 0.00 0.00 0.00 19 1009.8
20260506215517 68 304 10.0 15.0 0.00 0.00 0.00 19 1010.0
20260506215014 68 292 7.0 17.0 0.00 0.00 0.00 19 1010.2
20260506214555 67 247 10.0 17.0 0.00 0.00 0.00 19 1010.2
20260506214015 67 246 6.0 14.0 0.00 0.00 0.00 19 1010.2
20260506213514 67 232 9.0 15.0 0.00 0.00 0.00 19 1010.3
20260506213049 66 250 8.0 15.0 0.00 0.00 0.00 19 1010.4
20260506212518 66 273 8.0 15.0 0.00 0.00 0.00 19 1010.4
20260506212015 65 312 3.0 15.0 0.00 0.00 0.00 18 1010.7
20260506211557 66 334 8.0 16.0 0.00 0.00 0.00 18 1010.7
20260506211014 65 229 8.0 18.0 0.00 0.00 0.00 19 1010.7
20260506210515 65 97 4.0 18.0 0.00 0.00 0.00 18 1010.8
20260506210039 65 305 3.0 12.0 0.00 0.00 0.00 18 1011.0
20260506205520 65 246 5.0 10.0 0.00 0.00 0.00 18 1011.1
20260506205014 65 178 6.0 13.0 0.00 0.00 0.00 18 1011.2
20260506204559 64 162 6.0 12.0 0.00 0.00 0.00 19 1011.2
20260506204019 64 246 5.0 13.0 0.00 0.00 0.00 18 1011.3
20260506203519 65 201 9.0 14.0 0.00 0.00 0.00 18 1011.5
20260506203104 64 152 6.0 11.0 0.00 0.00 0.00 19 1011.6
20260506202520 63 200 3.0 14.0 0.00 0.00 0.00 19 1011.7
20260506202016 63 243 8.0 19.0 0.00 0.00 0.00 19 1011.7
20260506201559 63 223 13.0 19.0 0.00 0.00 0.00 18 1011.7
20260506201016 63 213 11.0 15.0 0.00 0.00 0.00 18 1011.7
20260506200517 62 189 8.0 16.0 0.00 0.00 0.00 19 1012.0
20260506200056 63 264 9.0 17.0 0.00 0.00 0.00 18 1012.0
20260506195522 63 256 11.0 17.0 0.00 0.00 0.00 18 1012.1
20260506195015 62 218 7.0 19.0 0.00 0.00 0.00 19 1012.2
20260506194601 62 282 7.0 19.0 0.00 0.00 0.00 18 1012.3
20260506194020 61 251 7.0 19.0 0.00 0.00 0.00 19 1012.3
20260506193517 61 233 6.0 18.0 0.00 0.00 0.00 18 1012.4
20260506193027 61 234 12.0 18.0 0.00 0.00 0.00 19 1012.5
20260506192511 61 224 9.0 14.0 0.00 0.00 0.00 18 1012.6
20260506192008 62 169 3.0 14.0 0.00 0.00 0.00 19 1012.7
20260506191557 62 174 7.0 33.0 0.00 0.00 0.00 19 1012.6
20260506191018 60 157 8.0 33.0 0.00 0.00 0.00 20 1012.8
20260506190519 60 164 6.0 14.0 0.00 0.00 0.00 20 1013.0
20260506190105 59 167 8.0 14.0 0.00 0.00 0.00 20 1013.3
20260506185518 59 213 7.0 13.0 0.00 0.00 0.00 20 1013.4
20260506185017 59 204 7.0 12.0 0.00 0.00 0.00 20 1013.5
20260506184600 58 217 4.0 13.0 0.00 0.00 0.00 20 1013.4
20260506184020 58 217 5.0 15.0 0.00 0.00 0.00 21 1013.5
20260506183519 58 177 6.0 18.0 0.00 0.00 0.00 21 1013.6
20260506183106 58 221 8.0 15.0 0.00 0.00 0.00 21 1013.6
20260506182518 59 160 8.0 14.0 0.00 0.00 0.00 21 1013.7
20260506182019 58 144 7.0 16.0 0.00 0.00 0.00 22 1013.8
20260506181626 57 137 10.0 14.0 0.00 0.00 0.00 22 1013.8
20260506181018 57 199 8.0 15.0 0.00 0.00 0.00 23 1013.9
20260506180516 57 205 10.0 15.0 0.00 0.00 0.00 22 1014.0
20260506180059 56 191 8.0 17.0 0.00 0.00 0.00 23 1014.2
20260506175523 56 213 8.0 16.0 0.00 0.00 0.00 24 1014.3
20260506175021 56 170 10.0 16.0 0.00 0.00 0.00 24 1014.3
20260506174553 56 140 6.0 17.0 0.00 0.00 0.00 24 1014.4
20260506174018 56 187 9.0 17.0 0.00 0.00 0.00 26 1014.4
20260506173519 56 140 8.0 15.0 0.00 0.00 0.00 26 1014.6
20260506173035 55 190 6.0 14.0 0.00 0.00 0.00 26 1014.9
20260506172515 55 152 6.0 14.0 0.00 0.00 0.00 26 1014.8
20260506172019 55 197 6.0 15.0 0.00 0.00 0.00 27 1015.0
20260506171602 54 206 6.0 14.0 0.00 0.00 0.00 26 1015.2
20260506171011 54 161 5.0 14.0 0.00 0.00 0.00 28 1015.3
20260506170514 54 168 6.0 15.0 0.00 0.00 0.00 30 1015.3
20260506170111 53 210 9.0 15.0 0.00 0.00 0.00 32 1015.2
20260506165519 53 223 8.0 13.0 0.00 0.00 0.00 31 1015.3
20260506165019 53 198 8.0 15.0 0.00 0.00 0.00 32 1015.3
20260506164609 52 159 8.0 17.0 0.00 0.00 0.00 32 1015.3